Tracking 30115 objects as of 17-Jan-2025
HD Live streaming from Space Station
objects crossing your sky now

STARLINK-32029

Track STARLINK-32029 now!
10-day predictions
STARLINK-32029 is classified as:


NORAD ID: 60145
Int'l Code: 2024-120L
Perigee: 481.5 km
Apogee: 483.3 km
Inclination: 53.2 °
Period: 94.1 minutes
Semi major axis: 6853 km
RCS: Unknown
Launch date: June 27, 2024
Source: United States (US)
Launch site: AIR FORCE EASTERN TEST RANGE (AFETR)
Your satellite tracking list
Your tracking list is empty




NASA's NSSDC Master Catalog

Two Line Element Set (TLE):
1 60145U 24120L   25016.64449558 -.00000392  00000-0 -11092-5 0  9998
2 60145  53.1606  97.1321 0001351 113.9797 246.1345 15.30184581 32522
Source of the keplerian elements: AFSPC